Location: Arcueil
(48.7999°N, 2.3326°E)
Time: 19:07:41
(UTC+00:00)

Cosmos 2315 Rocket - Visible Passes

Search period start: 01 October 2023 00:00
Search period end: 11 October 2023 00:00
Orbit: 966 x 1001 km, 82.9° (Epoch: 30 September)

Date Brightness Start Highest point End Pass type
(mag) Time Alt. Az. Time Alt. Az. Time Alt. Az.
01 Oct 6.8 00:45:52 10° NE 00:47:11 11° NE 00:48:30 10° ENE visible
01 Oct 4.7 02:28:11 10° N 02:34:25 52° ENE 02:40:17 12° SSE visible
01 Oct 4.7 04:14:15 10° NNW 04:19:41 31° W 04:24:51 11° SW visible
02 Oct 6.3 01:11:36 10° NNE 01:15:54 18° ENE 01:20:10 10° ESE visible
02 Oct 3.9 02:56:01 10° N 03:02:27 88° E 03:05:21 35° S visible
02 Oct 5.4 04:43:09 10° NW 04:47:07 18° WNW 04:50:03 13° WSW visible
02 Oct 7.0 18:23:04 10° WNW 18:24:48 11° NW 18:26:32 10° NW visible
03 Oct 5.6 01:38:47 10° N 01:44:22 30° ENE 01:46:42 24° ESE visible
03 Oct 4.1 03:24:05 10° NNW 03:30:16 54° W 03:31:25 48° SW visible
04 Oct 6.7 00:24:15 10° NE 00:25:21 10° NE 00:26:26 10° ENE visible
04 Oct 4.7 02:06:23 10° N 02:12:37 51° ENE 02:13:10 50° E visible
04 Oct 4.7 03:52:26 10° NNW 03:57:54 31° W 03:57:55 31° W visible
05 Oct 6.2 00:49:49 10° NNE 00:54:04 18° ENE 00:55:06 17° ENE visible
05 Oct 4.1 02:34:13 10° N 02:39:52 71° N 02:39:52 71° N visible
05 Oct 5.4 04:21:18 10° NW 04:24:39 18° WNW 04:24:39 18° WNW visible
05 Oct 6.9 18:01:02 10° WNW 18:02:58 11° NW 18:04:54 10° NW visible
06 Oct 5.6 01:17:00 10° N 01:21:58 30° ENE 01:21:58 30° ENE visible
06 Oct 4.6 03:02:16 10° NNW 03:06:45 43° NW 03:06:45 43° NW visible
07 Oct 6.7 00:02:44 10° NE 00:03:31 10° NE 00:04:11 10° ENE visible
07 Oct 5.2 01:44:35 10° N 01:48:58 39° NNE 01:48:58 39° NNE visible
07 Oct 5.3 03:30:35 10° NNW 03:33:45 25° NW 03:33:45 25° NW visible
08 Oct 6.3 00:28:03 10° NNE 00:31:16 17° NE 00:31:16 17° NE visible
08 Oct 5.1 02:12:24 10° N 02:16:03 37° N 02:16:03 37° N visible
08 Oct 5.8 03:59:27 10° NW 04:00:51 14° NW 04:00:51 14° NW visible
09 Oct 6.0 00:55:13 10° N 00:58:25 24° NNE 00:58:25 24° NNE visible
09 Oct 5.4 02:40:27 10° NNW 02:43:13 27° NNW 02:43:13 27° NNW visible
10 Oct 5.8 01:22:47 10° N 01:25:39 26° NNE 01:25:39 26° NNE visible
10 Oct 5.8 03:08:46 10° NNW 03:10:27 18° NW 03:10:27 18° NW visible
